COSMOS 2251 DEB, 35290

Orbit data source: Space-Track

COSMOS 2251 DEB, 35290 is space debris in LEO originally from a launch on Wed, 16 Jun 1993 UTC launched from the Plesetsk Missile And Space Complex (PKMTR). The debris from Iridium 33, an American commercial communications satellite, has been tracked extensively since its accidental collision with the defunct Russian satellite Cosmos 2251 in 2009. This event, occurring at high speed in low Earth orbit (LEO), generated thousands of pieces of space debris, significantly increasing the risk of further collisions. The Iridium 33 debris cloud has impacted space traffic management and orbital debris mitigation strategies, making it a subject of ongoing study in space situational awareness.

Loading next visibility...
Identifier
35290, 1993-036AJU
Orbit
LEO
Country
Flag of CISCIS
Related business
Manufacturer
Unknown
Mission
Spacecraft
Bus & Motor
Unknown
Mass
Unknown
Launch date (UTC)
1993-06-16 (33 years ago)
Launch vehicle
Unknown
Launch site
Plesetsk Missile And Space Complex (PKMTR)
Object type
Payload
Rocket body
Debris
Shape & HBR
Unknown shape, 0.1 m
Radar Cross Section
Small (<0.1 m²)

Expand to show TLE details & history
Last TLE update: 12 hours ago

TLE from 12 hours ago
0 COSMOS 2251 DEB
1 35290U 93036AJU 26264.60290180  .00009209  00000-0  99840-3 0  9999
2 35290  74.0005 216.8416 0008952 258.3464 101.6712 14.88274775921565
Epoch: 2026-09-21T14:28Z
TLE epoch observation values (Epoch: 2026-09-21T14:28:10.715Z)
Latitude
-0.00002°
Longitude
-0.68342°
Altitude
607.268 km
Speed
7.555 km/s
True Right ascension
14h 27m 21s
True Declination
0° 00' 00"
Sunlit
Object was in daylight at epoch
Visualization orbit readout
Latitude
Unknown
Longitude
Unknown
Altitude
Unknown
Speed
Unknown
Apparent Right ascension
Unknown
Apparent Declination
Unknown
Sunlit
N/A
Visualization observer readout
Local Sidereal Time
19:59:52
Azimuth
Unknown
Elevation
Unknown
Doppler factor
Unknown
Orbital elements
Apogee altitude
607.143 km
Perigee altitude
594.648 km
Semi-major axis
6,979.032 km
Eccentricity
0.0009
Inclination
74.0005°
RAAN
216.8416°
Arg. of periapsis
258.3464°
True anomaly
101.77164°
Mean anomaly
101.6712°
Eccentric anomaly
101.72142°
Mean motion
3.72263 °/min
Orbital period
96.71 mins
BSTAR
0.0009984

Documentation

Showing up to 5 results
|